This is the latest recevied weather packets stored in our database for station/object W7TJC. If no packets are shown the sender has not sent any weather packets the latest 10 day(s).
| Time | Temp. | Humidity | Pressure | Rain* | Wind** | Luminosity | Snow |
|---|---|---|---|---|---|---|---|
| 1778008582 | 13.89° C | 81% | 1017.7 hPa | 0 mm | - | 66 W/m² | - |
| 1778008279 | 14.44° C | 81% | 1017.5 hPa | 0 mm | - | 61 W/m² | - |
| 1778007975 | 13.89° C | 81% | 1017.4 hPa | 0 mm | - | 62 W/m² | - |
| 1778007670 | 14.44° C | 81% | 1017.8 hPa | 0 mm | - | 59 W/m² | - |
| 1778007367 | 13.89° C | 81% | 1017.7 hPa | 0 mm | - | 66 W/m² | - |
| 1778007063 | 13.89° C | 81% | 1017.6 hPa | 0 mm | - | 59 W/m² | - |
| 1778006760 | 13.89° C | 81% | 1017.8 hPa | 0 mm | - | 60 W/m² | - |
| 1778006457 | 13.89° C | 81% | 1017.7 hPa | 0 mm | - | 61 W/m² | - |
| 1778006153 | 13.89° C | 80% | 1017.3 hPa | 0 mm | - | 62 W/m² | - |
| 1778005851 | 13.89° C | 81% | 1017.5 hPa | 0 mm | - | 60 W/m² | - |
| 1778005547 | 13.89° C | 81% | 1017.7 hPa | 0 mm | - | 59 W/m² | - |
| 1778005244 | 13.89° C | 81% | 1017.6 hPa | 0 mm | - | 59 W/m² | - |
| 1778004941 | 13.89° C | 82% | 1017.7 hPa | 0 mm | - | 57 W/m² | - |
| 1778004638 | 13.89° C | 82% | 1017.5 hPa | 0 mm | - | 51 W/m² | - |
| 1778004334 | 13.89° C | 82% | 1017.5 hPa | 0 mm | - | 54 W/m² | - |
| 1778004032 | 13.89° C | 81% | 1017.5 hPa | 0 mm | - | 56 W/m² | - |
| 1778003732 | 13.33° C | 83% | 1017.7 hPa | 0 mm | - | 54 W/m² | - |
| 1778003429 | 13.33° C | 82% | 1017.7 hPa | 0 mm | - | 53 W/m² | - |
| 1778003126 | 13.33° C | 83% | 1017.3 hPa | 0 mm | - | 47 W/m² | - |
| 1778002822 | 13.33° C | 83% | 1017.7 hPa | 0 mm | - | 40 W/m² | - |
| 1778002519 | 13.33° C | 83% | 1017.6 hPa | 0 mm | - | 40 W/m² | - |
| 1778002216 | 13.33° C | 82% | 1017.5 hPa | 0 mm | - | 38 W/m² | - |
| 1778001914 | 13.33° C | 82% | 1017.5 hPa | 0 mm | - | 38 W/m² | - |
| 1778001609 | 13.33° C | 83% | 1017.4 hPa | 0 mm | - | 40 W/m² | - |
| 1778001305 | 13.33° C | 82% | 1017.3 hPa | 0 mm | - | 41 W/m² | - |
* Rain latest hour (hover to see other rain measurements)
** Current wind speed in m/s (hover to see current wind gust speed)